Погода Верхний Уфалей

Погода Верхний Уфалей : погода сейчас, прогноз погоды и архив. Всё, что Вы хотите узнать о погоде Верхний Уфалей!

Поиск расширенной информации на нашем сайте:

Другие новости

Новости СМИ2

Главная страница сайта

Новости сайта

02.10.2013

Напоминаем, что на нашем новом сайте вы можете получить высокодетализированные прогнозы погоды по пунктам России, СНГ и мира (включающие важные для авиации метеовеличины, такие как направление и скорость ветра, видимость, явления погоды, количество и форма облачности, нижняя и верхняя граница облачности), а также ознакомиться с разнообразными материалами по авиационной метеорологии и подборкой полезных ссылок на эту тему.

Сайт Метеоцентр.Азия посвящён разработке технологий оптимизации авиаметеорологического обслуживания, включая проектирование и перспективное создание нескольких автоматизированных авиаметеорологических систем:
- система выпуска высокодетальных прогностических карт явлений погоды для нижнего воздушного пространства по России и ближнему зарубежью;
- система верификации прогнозов TAF (выпускаемых синоптиками официальных АМСГ РФ и ближнего зарубежья) и AUTOTAF (выпускаемых сайтом Метеоцентр.Азия) - выявление ошибок, онлайн-сопоставление с фактической погодой METAR, автоматическое внесение коррективов в прогнозы при резком отклонении фактической погоды от прогноза, подсчёт оправдываемости прогнозов по элементам и в целом;
- система обработки, анализа и отображения авиаметеорологической информации для применения провайдерами метеорологической информации.

Рекомендуем: Набор столовое серебро цена.

Погода Верхний Уфалей - сегодня

Время (UTC), дата Ветер
(°,м/с) 
Видим.   Явления Облачность Т
(°С)
Тd
(°С)
f(%) Тe
(°С)
Pmin
(гПа)
dP
(гПа)
Po
(мм)
O2
(г/м3)
Тmin Tmax R s Состояние
почвы
09 25.05.17 270 (З) 5-10{10}  20000 м    ясно 
+15.4 -4.6 25 +15  1016  0.4  727  278           
12 25.05.17 280 (З) 5{10}  20000 м    ясно 
+16.4 -6.7 20 +16  1016.4  0.5  727  277           
15 25.05.17 300 (СЗ) 20000 м    ясно 
+16.1 -5.9 22 +17  1016.6  0.1  728  277    +16.9       
18 25.05.17 070 (В) 20000 м    ясно 
+6 -2.6 54 +7  1019.7  1.4  729  287           
21 25.05.17 тихо ()   20000 м    ясно 
+1 -2.9 75 +1  1021.5  0.8  729  293           
00 26.05.17 050 (СВ) 20000 м    6/5 600 м средняя 
[Sc|Ac trans]
+1.3 -0.9 85 +2  1021.4  729  292           
03 26.05.17 320 (СЗ) 20000 м    4/0 верхняя 
[Ci fib]
+9 +1.8 61 +10  1019.5  -0.4  729  284  -0.7        влажная 
06 26.05.17 210 (ЮЗ) 3{10}  20000 м    ясно 
+20.6 +6.3 39 +21  1015.9  -1.6  728  272           
09 26.05.17 210 (ЮЗ) 20000 м  в посл. час ливневой дождь  8/8 600 м 
[Sc]
+22.9 +8 38 +23  1014.1  -1.4  727  269           
12 26.05.17 270 (З) 2{10}  20000 м  {ливн. осадки}  8/6 600 м верхняя 
[Sc|Ci fib]
+21.7 +6.4 37 +22  1013.1  -1.1  726  270           
18 26.05.17 110 (В) 20000 м  {ливн. осадки}  6/3 600 м средняя, верхняя 
[Sc|Ac trans|Ci fib]
+16.1 +7.3 56 +17  1012.5  -0.1  725  274           
21 26.05.17 тихо ()   20000 м    ясно 
+9.5 +7.2 86 +10  1012.4  -1.2  724  281           
00 27.05.17 тихо ()   20000 м    8/0 средняя, верхняя 
[Ac trans|Ci fib]
+6.4 +5 91 +6  1011.5  -1.4  723  284           
06 27.05.17 210 (ЮЗ) 20000 м    10/5 600 м средняя 
[Sc|Ac As]
+17.4 +8.9 57 +19  1007.6  -1.2  721  272           
09 27.05.17 200 (Ю) 20000 м    9/4 600 м средняя 
[Sc|Ac trans]
+19.4 +6.5 43 +20  1005.2  -1.9  720  270           
12 27.05.17 140 (ЮВ) 20000 м  в посл. час ливневой дождь  10/6 600 м средняя 
[Sc|Ac As]
+15.2 +9.6 69 +16  1004.6  -1.2  719  273           
18 27.05.17 070 (В) 20000 м    8/0 средняя, верхняя 
[Ac trans|Ci sp]
+11.3 +8.7 84 +12  1001.7  -1.3  716  276           
21 27.05.17 120 (ЮВ) 20000 м    8/0 средняя, верхняя 
[Ac trans|Ci sp]
+10.2 +8.1 87 +11  1000.5  -1.4  715  276           
00 28.05.17 210 (ЮЗ) 20000 м    9/3 600 м средняя, верхняя 
[Sc|Ac trans|Ci sp]
+10.6 +9.2 91 +13  999.6  -0.7  715  276           
06 28.05.17 230 (ЮЗ) 4{10}  20000 м    9/8 600 м средняя 
[Sc|Ac trans]
+13.6 +9.7 77 +15  997.6  -0.3  714  272           
18 28.05.17 360 (С) 20000 м    9/8 600 м средняя 
[Sc|Ac trans]
+3.1 +0.4 82 +3  1008.3  1.2  720  287           
21 28.05.17 300 (СЗ) 20000 м    3/3 600 м средняя 
[Sc|Ac trans]
+0.7 -2.3 80 +1  1009.1  0.3  720  290           
00 29.05.17 040 (СВ) 20000 м    3/0 верхняя 
[Ci fib]
-2.1 -4.6 83 -2  1010.1  0.3  721  293           
06 29.05.17 320 (СЗ) 20000 м    8/8 600 м верхняя 
[Sc|Ci fib]
+4.4 -6.4 45 +3  1008.7  -0.4  720  286           
09 29.05.17 350 (С) 20000 м    8/8 600 м 
[Sc]
+7.7 -8.1 32 +7  1008  -0.1  720  283           
Время (UTC), дата Ветер
(°,м/с) 
Видим.   Явления Облачность Т
(°С)
Тd
(°С)
f(%) Тe
(°С)
Pmin
(гПа)
dP
(гПа)
Po
(мм)
O2
(г/м3)
Тmin Tmax R s Состояние
почвы

Для получения пояснительной информации подведите курсор к названию столбца.

ПОГОДА Верхний Уфалей - архив

Всё, что Вы хотите узнать о погоде Верхний Уфалей - удобно и подробно!

Выберите нужную дату (начиная с 1 января 2015* года) и нажмите кнопку "Найти".
Будут отображены архивные сводки погоды по пункту Верхний Уфалей, начиная с указанной даты.


Отображать данные в формате CSV (для использования в таблицах Excel)


Внимание! Наш архив погоды предназначен исключительно для личного некоммерческого использования в познавательных целях. Если Вам необходимы официальные справки о состоянии погоды (для производственных, юридических, коммерческих и т.п. целей), обращайтесь в органы Росгидромета.

*Примечание: данная дата относится к архиву по метеостанциям СССР (Россия, СНГ, Балтия).
Архив по метеостанциям Зарубежной Европы и Азии (кроме Китая) хранится 10 дней, по другим регионам земного шара (Китай, Африка, Америка, Австралия, Океания) - 1 день.

Верхний Уфалей - район местоположения метеостанции


Название, широта, долгота, высота метеостанции:
Верхний Уфалей 56.1°ш. 60.3°д. 399 м над ур. моря [Российская Федерация]

Дополнительная информация

В oтличие oт бoльшинства пoгoдных сайтoв мы публикуем пoдрoбную метеoинфoрмацию в детальнoм прoфессиoнальнoм фoрмате.

Характеристики температуры и влажнoсти вoздуха измеряются на высoте 2 м в тени вдали oт зданий и деревьев.
Скoрoсть ветра измеряется на высoте 10 м (на урoвне рoста челoвека скoрoсть ветра ниже в 1.5-2 раза). Если метеoстанция нахoдится в гoрoде или в лесу, тo скoрoсть ветра занижена на 2-4 м/с пo сравнению с oткрытым местoм. Скoрoсть ветра над акватoриями крупных рек и oзёр, а также на вершинах хoлмoв на 2-5 м/с выше, чем в oбычных услoвиях.
Атмoсфернoе давление в разных тoчках местнoсти мoжет значительнo oтличаться oт давления на метеoстанции, в зависимoсти oт услoвий рельефа (при пoдъёме на 10 м давление пoнижается примернo на 1 мм рт.ст.).